TimeEST,TemperatureF,Dew PointF,Humidity,Sea Level PressureIn,VisibilityMPH,Wind Direction,Wind SpeedMPH,Gust SpeedMPH,PrecipitationIn,Events,Conditions,WindDirDegrees,DateUTC
12:53 AM,70.0,66.0,87,30.11,10.0,Calm,Calm,-,N/A,,Overcast,0,2013-02-20 05:53:00
1:53 AM,68.0,64.9,90,30.09,9.0,Calm,Calm,-,N/A,,Overcast,0,2013-02-20 06:53:00
2:23 AM,69.8,66.2,88,30.08,9.0,NNW,3.5,-,N/A,,Overcast,340,2013-02-20 07:23:00
2:53 AM,69.1,66.0,90,30.08,9.0,North,3.5,-,N/A,,Overcast,350,2013-02-20 07:53:00
3:32 AM,69.8,64.4,83,30.07,9.0,Calm,Calm,-,N/A,,Overcast,0,2013-02-20 08:32:00
3:53 AM,69.1,66.0,90,30.06,9.0,Calm,Calm,-,N/A,,Overcast,0,2013-02-20 08:53:00
4:53 AM,69.1,66.0,90,30.08,9.0,NNW,4.6,-,N/A,,Overcast,340,2013-02-20 09:53:00
5:53 AM,69.1,64.9,87,30.07,9.0,NNE,3.5,-,N/A,,Overcast,30,2013-02-20 10:53:00
6:53 AM,68.0,64.9,90,30.11,8.0,Calm,Calm,-,N/A,,Overcast,0,2013-02-20 11:53:00
7:47 AM,69.8,64.4,83,30.12,10.0,Variable,3.5,-,N/A,,Mostly Cloudy,0,2013-02-20 12:47:00
7:53 AM,69.1,64.0,84,30.12,10.0,Calm,Calm,-,N/A,,Mostly Cloudy,0,2013-02-20 12:53:00
8:53 AM,73.0,63.0,71,30.12,10.0,NNE,3.5,-,N/A,,Scattered Clouds,30,2013-02-20 13:53:00
9:53 AM,75.9,61.0,60,30.12,10.0,NNE,6.9,-,N/A,,Scattered Clouds,20,2013-02-20 14:53:00
10:53 AM,77.0,60.1,56,30.12,10.0,East,3.5,-,N/A,,Scattered Clouds,80,2013-02-20 15:53:00
11:53 AM,79.0,61.0,54,30.09,10.0,ENE,13.8,17.3,N/A,,Scattered Clouds,70,2013-02-20 16:53:00
12:53 PM,79.0,62.1,56,30.08,10.0,ENE,9.2,-,N/A,,Mostly Cloudy,70,2013-02-20 17:53:00
1:53 PM,79.0,64.9,62,30.06,10.0,East,13.8,-,N/A,,Mostly Cloudy,90,2013-02-20 18:53:00
2:53 PM,77.0,64.9,66,30.04,10.0,East,13.8,23.0,N/A,,Mostly Cloudy,100,2013-02-20 19:53:00
3:53 PM,75.9,64.0,67,30.04,10.0,East,13.8,-,N/A,,Mostly Cloudy,80,2013-02-20 20:53:00
4:53 PM,75.0,64.9,71,30.03,10.0,ESE,11.5,-,N/A,,Mostly Cloudy,110,2013-02-20 21:53:00
4:55 PM,75.2,64.4,69,30.03,10.0,East,10.4,-,N/A,,Mostly Cloudy,100,2013-02-20 21:55:00
5:43 PM,73.4,64.4,73,30.04,10.0,East,10.4,-,N/A,,Mostly Cloudy,80,2013-02-20 22:43:00
5:53 PM,73.0,64.9,76,30.05,10.0,East,10.4,-,N/A,,Mostly Cloudy,80,2013-02-20 22:53:00
6:26 PM,73.4,66.2,78,30.05,10.0,East,8.1,-,N/A,,Mostly Cloudy,80,2013-02-20 23:26:00
6:53 PM,73.0,66.0,79,30.07,10.0,East,4.6,-,N/A,,Mostly Cloudy,80,2013-02-20 23:53:00
7:37 PM,73.4,66.2,78,30.08,10.0,East,6.9,-,N/A,,Overcast,90,2013-02-21 00:37:00
7:53 PM,73.0,66.0,79,30.08,10.0,ENE,4.6,-,N/A,,Overcast,60,2013-02-21 00:53:00
8:53 PM,73.0,66.0,79,30.07,10.0,East,8.1,-,N/A,,Overcast,90,2013-02-21 01:53:00
9:53 PM,73.0,66.0,79,30.09,10.0,East,4.6,-,N/A,,Overcast,90,2013-02-21 02:53:00
10:53 PM,73.0,66.9,81,30.10,10.0,ENE,5.8,-,N/A,,Overcast,70,2013-02-21 03:53:00
11:53 PM,73.0,66.9,81,30.08,10.0,East,6.9,-,N/A,,Mostly Cloudy,80,2013-02-21 04:53:00